AC0ID-13 Weather Reports


Display with metric or nautical units.
time (UTC)temp
F
wind
direction
speed
MPH
gust
MPH
rain 1hr
in
rain 24hr
in
rain mn
in
humidity
%
barometer
mb
20260505090011 38 193 0.0 1.0 0.00 0.00 0.00 58 1007.3
20260505085504 38 193 0.0 1.0 0.00 0.00 0.00 58 1007.1
20260505085004 39 193 0.0 1.0 0.00 0.00 0.00 58 1007.1
20260505084519 39 193 0.0 1.0 0.00 0.00 0.00 58 1007.0
20260505084006 39 193 0.0 1.0 0.00 0.00 0.00 57 1007.0
20260505083507 39 193 0.0 1.0 0.00 0.00 0.00 57 1006.9
20260505083014 39 193 0.0 2.0 0.00 0.00 0.00 57 1006.8
20260505082508 39 193 0.0 2.0 0.00 0.00 0.00 57 1006.8
20260505082013 40 131 0.0 2.0 0.00 0.00 0.00 57 1006.7
20260505081509 40 141 0.0 1.0 0.00 0.00 0.00 57 1006.6
20260505081008 40 142 0.0 1.0 0.00 0.00 0.00 57 1006.6
20260505080504 40 131 0.0 2.0 0.00 0.00 0.00 56 1006.5
20260505080012 40 127 0.0 2.0 0.00 0.00 0.00 56 1006.6
20260505075504 40 136 0.0 1.0 0.00 0.00 0.00 56 1006.6
20260505075007 40 136 0.0 1.0 0.00 0.00 0.00 56 1006.6
20260505074514 41 39 0.0 2.0 0.00 0.00 0.00 56 1006.6
20260505074007 41 232 0.0 3.0 0.00 0.00 0.00 56 1006.5
20260505073504 41 22 0.0 3.0 0.00 0.00 0.00 56 1006.5
20260505073024 41 217 0.0 3.0 0.00 0.00 0.00 55 1006.5
20260505072509 41 162 0.0 2.0 0.00 0.00 0.00 55 1006.5
20260505072004 41 162 0.0 4.0 0.00 0.00 0.00 55 1006.5
20260505071539 41 244 0.0 4.0 0.00 0.00 0.00 55 1006.6
20260505071008 41 328 0.0 4.0 0.00 0.00 0.00 55 1006.6
20260505070511 41 266 0.0 3.0 0.00 0.00 0.00 55 1006.6
20260505070016 41 282 0.0 3.0 0.00 0.00 0.00 55 1006.6
20260505065509 41 150 0.0 2.0 0.00 0.00 0.00 54 1006.5
20260505065008 41 80 0.0 3.0 0.00 0.00 0.00 54 1006.5
20260505064520 42 196 0.0 3.0 0.00 0.00 0.00 54 1006.5
20260505064005 42 112 0.0 6.0 0.00 0.00 0.00 54 1006.5
20260505063503 42 49 1.0 6.0 0.00 0.00 0.00 54 1006.5
20260505063016 42 321 0.0 3.0 0.00 0.00 0.00 53 1006.5
20260505062504 42 31 0.0 3.0 0.00 0.00 0.00 53 1006.5
20260505062010 42 148 0.0 3.0 0.00 0.00 0.00 53 1006.5
20260505061519 42 138 0.0 3.0 0.00 0.00 0.00 53 1006.5
20260505061012 42 301 0.0 3.0 0.00 0.00 0.00 52 1006.5
20260505060510 42 322 0.0 2.0 0.00 0.00 0.00 52 1006.4
20260505060021 42 305 0.0 2.0 0.00 0.00 0.00 52 1006.5
20260505055510 42 313 0.0 2.0 0.00 0.00 0.00 52 1006.6
20260505055008 42 121 0.0 2.0 0.00 0.00 0.00 51 1006.5
20260505054532 43 121 0.0 3.0 0.00 0.00 0.00 51 1006.6
20260505054013 43 121 0.0 3.0 0.00 0.00 0.00 51 1006.5
20260505053515 43 84 0.0 2.0 0.00 0.00 0.00 51 1006.5
20260505053024 43 52 0.0 2.0 0.00 0.00 0.00 51 1006.5
20260505052505 43 119 0.0 2.0 0.00 0.00 0.00 50 1006.5
20260505052007 43 75 0.0 2.0 0.00 0.00 0.00 50 1006.5
20260505051520 43 38 0.0 2.0 0.00 0.00 0.00 50 1006.5
20260505051008 43 246 0.0 2.0 0.00 0.00 0.00 49 1006.4
20260505050509 43 196 0.0 2.0 0.00 0.00 0.00 49 1006.4
20260505041521 45 81 0.0 3.0 0.00 0.00 0.00 46 1006.5
20260505041007 45 150 0.0 3.0 0.00 0.00 0.00 45 1006.4
20260505040507 45 301 0.0 5.0 0.00 0.00 0.00 45 1006.5
20260505040032 46 18 1.0 5.0 0.00 0.00 0.00 45 1006.5
20260505035508 46 333 0.0 7.0 0.00 0.00 0.00 45 1006.5
20260505035013 46 288 1.0 7.0 0.00 0.00 0.00 45 1006.5
20260505034523 46 333 0.0 7.0 0.00 0.00 0.00 46 1006.5
20260505034012 47 321 1.0 7.0 0.00 0.00 0.00 46 1006.5
20260505033506 47 18 0.0 8.0 0.00 0.00 0.00 46 1006.5
20260505033028 47 288 1.0 8.0 0.00 0.00 0.00 45 1006.5
20260505032507 47 294 1.0 8.0 0.00 0.00 0.00 46 1006.4
20260505032011 47 296 1.0 11.0 0.00 0.00 0.00 46 1006.4
20260505031528 48 16 3.0 11.0 0.00 0.00 0.00 46 1006.5
20260505031014 48 325 3.0 8.0 0.00 0.00 0.00 46 1006.5
20260505030506 48 262 2.0 9.0 0.00 0.00 0.00 45 1006.3
20260505030027 48 30 2.0 9.0 0.00 0.00 0.00 45 1006.2
20260505025509 48 259 2.0 10.0 0.00 0.00 0.00 45 1006.0
20260505025007 49 205 2.0 13.0 0.00 0.00 0.00 45 1005.9
20260505024520 49 339 2.0 13.0 0.00 0.00 0.00 44 1005.8
20260505024006 49 277 3.0 13.0 0.00 0.00 0.00 44 1005.7
20260505023508 49 33 3.0 11.0 0.00 0.00 0.00 43 1005.6
20260505023020 49 301 2.0 9.0 0.00 0.00 0.00 44 1005.5
20260505022509 49 342 2.0 11.0 0.00 0.00 0.00 44 1005.3
20260505022010 49 324 3.0 11.0 0.00 0.00 0.00 43 1005.2
20260505021526 50 36 2.0 10.0 0.00 0.00 0.00 43 1004.9
20260505021007 50 167 3.0 10.0 0.00 0.00 0.00 42 1004.8
20260505020511 50 134 1.0 11.0 0.00 0.00 0.00 43 1004.8
20260505020026 50 324 3.0 11.0 0.00 0.00 0.00 43 1004.7
20260505015508 50 263 2.0 11.0 0.00 0.00 0.00 43 1004.6
20260505015007 51 313 1.0 9.0 0.00 0.00 0.00 43 1004.5
20260505014528 51 340 3.0 12.0 0.00 0.00 0.00 43 1004.5
20260505014009 51 317 3.0 12.0 0.00 0.00 0.00 42 1004.4
20260505013509 51 261 3.0 11.0 0.00 0.00 0.00 42 1004.3
20260505013020 52 320 4.0 11.0 0.00 0.00 0.00 42 1004.2
20260505012507 52 327 4.0 11.0 0.00 0.00 0.00 42 1004.0
20260505012010 52 274 2.0 14.0 0.00 0.00 0.00 41 1003.9
20260505011524 52 219 4.0 17.0 0.00 0.00 0.00 41 1003.8
20260505011007 53 225 3.0 17.0 0.00 0.00 0.00 41 1003.7
20260505010503 53 332 3.0 13.0 0.00 0.00 0.00 41 1003.6
20260505010004 53 346 3.0 9.0 0.00 0.00 0.00 41 1003.6
20260505005504 54 330 2.0 9.0 0.00 0.00 0.00 41 1003.5
20260505005006 54 327 1.0 9.0 0.00 0.00 0.00 41 1003.4
20260505004504 54 306 2.0 10.0 0.00 0.00 0.00 40 1003.3
20260505004003 54 290 5.0 10.0 0.00 0.00 0.00 40 1003.2
20260505003508 55 352 1.0 10.0 0.00 0.00 0.00 40 1003.2
20260505003020 55 351 1.0 12.0 0.00 0.00 0.00 40 1003.0
20260505002503 55 298 4.0 12.0 0.00 0.00 0.00 39 1003.0
20260505002003 56 49 3.0 12.0 0.00 0.00 0.00 40 1002.9
20260505001504 56 314 4.0 11.0 0.00 0.00 0.00 39 1002.9
20260505001003 56 348 3.0 12.0 0.00 0.00 0.00 39 1002.7
20260505000504 56 299 1.0 12.0 0.00 0.00 0.00 39 1002.8
20260505000007 57 344 2.0 12.0 0.00 0.00 0.00 39 1002.7
20260504235506 57 221 2.0 10.0 0.00 0.00 0.00 38 1002.6
20260504235004 57 24 2.0 14.0 0.00 0.00 0.00 38 1002.6
20260504234509 58 315 4.0 14.0 0.00 0.00 0.00 37 1002.5
20260504234008 58 273 4.0 12.0 0.00 0.00 0.00 37 1002.5
20260504233502 58 321 3.0 10.0 0.00 0.00 0.00 37 1002.4
20260504233010 59 257 3.0 10.0 0.00 0.00 0.00 37 1002.3
20260504232507 59 210 3.0 15.0 0.00 0.00 0.00 36 1002.3
20260504232010 59 331 6.0 15.0 0.00 0.00 0.00 36 1002.3
20260504231503 59 324 5.0 14.0 0.00 0.00 0.00 36 1002.1
20260504231001 60 257 3.0 14.0 0.00 0.00 0.00 36 1002.1
20260504230503 60 288 3.0 11.0 0.00 0.00 0.00 36 1002.0
20260504230003 60 237 2.0 11.0 0.00 0.00 0.00 36 1002.1
20260504225503 60 266 4.0 11.0 0.00 0.00 0.00 35 1001.8
20260504225006 60 251 2.0 18.0 0.00 0.00 0.00 35 1001.8
20260504224511 61 52 3.0 18.0 0.00 0.00 0.00 35 1001.7
20260504224002 61 350 3.0 13.0 0.00 0.00 0.00 34 1001.6
20260504223506 61 267 3.0 9.0 0.00 0.00 0.00 34 1001.5
20260504223013 61 45 3.0 17.0 0.00 0.00 0.00 33 1001.6
20260504222507 62 229 3.0 17.0 0.00 0.00 0.00 33 1001.4
20260504222003 62 304 4.0 11.0 0.00 0.00 0.00 33 1001.3
20260504221516 63 348 2.0 10.0 0.00 0.00 0.00 33 1001.2
20260504221005 63 323 2.0 8.0 0.00 0.00 0.00 33 1001.1
20260504220503 63 158 2.0 10.0 0.00 0.00 0.00 33 1000.9
20260504220007 63 254 1.0 12.0 0.00 0.00 0.00 34 1000.8
20260504215506 63 78 3.0 12.0 0.00 0.00 0.00 33 1000.7
20260504215002 63 349 1.0 12.0 0.00 0.00 0.00 34 1000.7
20260504214506 63 280 3.0 11.0 0.00 0.00 0.00 35 1000.8
20260504214003 63 243 2.0 9.0 0.00 0.00 0.00 33 1000.7
20260504213505 63 198 1.0 13.0 0.00 0.00 0.00 34 1000.8
20260504213011 63 74 4.0 13.0 0.00 0.00 0.00 34 1000.9
20260504212507 63 257 2.0 13.0 0.00 0.00 0.00 34 1000.8
20260504212007 63 271 2.0 11.0 0.00 0.00 0.00 31 1001.0
20260504211516 64 259 2.0 11.0 0.00 0.00 0.00 32 1000.8
20260504211003 64 96 4.0 11.0 0.00 0.00 0.00 29 1000.8
20260504210507 65 147 3.0 11.0 0.00 0.00 0.00 30 1000.7
20260504210024 65 261 3.0 18.0 0.00 0.00 0.00 29 1000.5
20260504205509 66 17 3.0 18.0 0.00 0.00 0.00 29 1000.5
20260504205005 67 269 5.0 12.0 0.00 0.00 0.00 28 1000.5
20260504204515 67 80 3.0 11.0 0.00 0.00 0.00 29 1000.5
20260504204010 67 286 2.0 10.0 0.00 0.00 0.00 28 1000.4
20260504203503 67 109 3.0 16.0 0.00 0.00 0.00 27 1000.4
20260504203011 66 57 3.0 16.0 0.00 0.00 0.00 27 1000.4
20260504202507 67 360 3.0 12.0 0.00 0.00 0.00 30 1000.3
20260504202006 66 313 2.0 10.0 0.00 0.00 0.00 31 1000.4
20260504201517 65 243 2.0 7.0 0.00 0.00 0.00 30 1000.3
20260504201003 65 295 2.0 12.0 0.00 0.00 0.00 29 1000.2
20260504200509 65 221 2.0 12.0 0.00 0.00 0.00 29 1000.3
20260504200029 65 245 2.0 10.0 0.00 0.00 0.00 29 1000.3
20260504195504 66 348 2.0 10.0 0.00 0.00 0.00 29 1000.3
20260504195008 66 246 3.0 11.0 0.00 0.00 0.00 30 1000.3
20260504194523 66 334 2.0 11.0 0.00 0.00 0.00 30 1000.2
20260504194005 66 71 2.0 12.0 0.00 0.00 0.00 29 1000.2
20260504193507 66 257 4.0 13.0 0.00 0.00 0.00 28 1000.2
20260504193022 66 313 2.0 13.0 0.00 0.00 0.00 29 1000.2
20260504192511 66 77 2.0 10.0 0.00 0.00 0.00 29 1000.2
20260504192006 66 260 3.0 10.0 0.00 0.00 0.00 30 1000.1
20260504191520 66 30 1.0 8.0 0.00 0.00 0.00 31 1000.1
20260504191004 65 205 2.0 8.0 0.00 0.00 0.00 32 1000.0
20260504190504 65 300 2.0 8.0 0.00 0.00 0.00 34 1000.1
20260504190016 64 90 2.0 11.0 0.00 0.00 0.00 34 999.9
20260504185511 64 210 2.0 11.0 0.00 0.00 0.00 36 999.9
20260504185007 64 249 2.0 10.0 0.00 0.00 0.00 34 1000.0
20260504184514 65 329 1.0 10.0 0.00 0.00 0.00 35 999.9
20260504184007 65 266 3.0 11.0 0.00 0.00 0.00 34 999.8
20260504183508 65 261 2.0 11.0 0.00 0.00 0.00 34 999.7
20260504183036 66 5 2.0 19.0 0.00 0.00 0.00 34 999.7
20260504182509 66 113 2.0 19.0 0.00 0.00 0.00 31 999.6
20260504182010 66 248 3.0 19.0 0.00 0.00 0.00 30 999.4
20260504181528 67 217 2.0 7.0 0.00 0.00 0.00 27 999.3
20260504181003 67 173 2.0 8.0 0.00 0.00 0.00 28 999.3
20260504180511 68 234 1.0 8.0 0.00 0.00 0.00 30 999.2
20260504180012 68 302 1.0 11.0 0.00 0.00 0.00 33 999.1
20260504175504 68 231 2.0 11.0 0.00 0.00 0.00 32 999.0
20260504175004 69 39 3.0 10.0 0.00 0.00 0.00 34 998.9
20260504174519 69 284 1.0 10.0 0.00 0.00 0.00 34 998.9
20260504174007 69 344 3.0 10.0 0.00 0.00 0.00 35 999.0
20260504173503 69 175 2.0 8.0 0.00 0.00 0.00 32 998.9
20260504173018 69 248 2.0 10.0 0.00 0.00 0.00 36 999.0
20260504172510 69 347 3.0 10.0 0.00 0.00 0.00 36 999.0
20260504172012 68 238 2.0 9.0 0.00 0.00 0.00 37 999.0
20260504171515 67 225 3.0 9.0 0.00 0.00 0.00 33 999.1
20260504171015 67 249 0.0 8.0 0.00 0.00 0.00 33 999.1
20260504170513 68 275 2.0 10.0 0.00 0.00 0.00 32 999.1
20260504151006 65 299 2.0 8.0 0.00 0.00 0.00 45 998.5
20260504150511 65 222 2.0 7.0 0.00 0.00 0.00 46 998.5
20260504141011 62 39 1.0 7.0 0.00 0.00 0.00 47 998.4
20260504140508 62 80 2.0 10.0 0.00 0.00 0.00 47 998.3
20260504130504 57 224 4.0 15.0 0.00 0.00 0.00 51 997.7
20260504110505 52 146 3.0 9.0 0.00 0.00 0.00 54 998.3
20260504100502 50 257 2.0 7.0 0.00 0.00 0.00 55 999.0